Facebook Twitter

Wetterstation Ried i.Innkreis

aktuelles Wetter
  Temperatur Wetter Niederschlag Luftdruck Wind
Fr, 05:00 Uhr -2° - 0 mm 1019.1 hPa 11 km/h O
Fr, 04:00 Uhr -3° - 0 mm 1019 hPa 11 km/h O
Fr, 03:00 Uhr -2° - 0 mm 1019.2 hPa 7 km/h O
Fr, 02:00 Uhr -2° - 0 mm 1019 hPa 11 km/h O
Fr, 01:00 Uhr -2° - 0 mm 1018.8 hPa 7 km/h O
Fr, 00:00 Uhr -2° - 0 mm 1019 hPa 7 km/h O
Do, 23:00 Uhr -2° - 0 mm 1018.9 hPa 7 km/h O
Do, 22:00 Uhr -2° - 0 mm 1018.7 hPa 7 km/h O
Do, 21:00 Uhr -2° - 0 mm 1018.8 hPa 14 km/h O
Do, 20:00 Uhr -2° - 0 mm 1018.5 hPa 11 km/h O
Do, 19:00 Uhr -2° bedeckt 0.1 mm 1018.1 hPa 7 km/h O
Do, 18:00 Uhr -2° - 0 mm 1018 hPa 7 km/h O
Do, 17:00 Uhr -2° - 0 mm 1017.8 hPa 11 km/h O
Do, 16:00 Uhr -1° - 0 mm 1017.7 hPa 11 km/h O
Do, 15:00 Uhr -1° - 0 mm 1017.6 hPa 7 km/h O
Do, 14:00 Uhr -1° - 0 mm 1017.6 hPa 11 km/h O
Do, 13:00 Uhr -1° bedeckt 0.1 mm 1017.9 hPa 11 km/h O
Do, 12:00 Uhr -1° - 0 mm 1018.2 hPa 14 km/h O
Do, 11:00 Uhr -1° - 0 mm 1018.9 hPa 11 km/h O
Do, 10:00 Uhr -1° bedeckt 0.1 mm 1019.1 hPa 11 km/h O

Alle Zeitangaben MEZ